User: anonymous   Login
Location: Twentynine Palms Airport
(34.1316°N, 115.9458°W)
Time: 11:57:03
(UTC-07:00)
Language:

Oscar 19 - Orbit

View from above orbital plane
View from above orbital plane
View from above satellite
View from above satellite

Ground track
Ground track

The orbit data is extracted from the following two-line orbital elements,

1 20442U 90005G   16270.74123795  .00000026  00000-0  25428-4 0  9993
2 20442  98.5482 204.2919 0011222 201.0669 159.0054 14.32830773393893
Epoch (UTC): 26 September 2016 17:47:22
Eccentricity: 0.0011222
inclination: 98.5482°
perigee height: 774 km
apogee height: 790 km
right ascension of ascending node: 204.2919°
argument of perigee: 201.0669°
revolutions per day: 14.32830773
mean anomaly at epoch: 159.0054°
orbit number at epoch: 39389

The dashed part of the orbit path shows where the satellite is in the earth's shadow,  

DLR